• Join FlightAware (Why Join?)
  • Login
  • US Flag 
06:12AM EDT


 

Airport Tracker/Info


-or-


 

Live Flight TrackerFlight Track Log ✈ JIA2342 ✈ 12-Jun-2013 ✈ KDCA - KALB

Flight Track Log - Related Links

Times and Time Zones

All times are in EDT time to prevent confusion due to time zone crossing. See the JIA2342 flight status page for this flight to view local times or setup timezone preferences in your user account.

Time Position Orientation Groundspeed Altitude Reporting Facility
EDT Latitude Longitude Course Direction KTS MPH feet Rate Location/Type
07:38PM 38.8667 -77.0333 90° East 163 188 800  Level Potomac TRACON
07:39PM 38.9000 -77.0833 311° West 227 261 2,300 1,860 Climbing Potomac TRACON
07:40PM 38.9886 -77.1647 324° Northwest 249 287 5,600 2,340 Climbing Washington Center
07:41PM 39.0394 -77.0883 49° Northeast 206 237 8,400 2,460 Climbing Washington Center
07:42PM 39.0761 -76.9953 63° Northeast 223 257 10,500 1,980 Climbing Washington Center
07:43PM 39.1167 -76.2837 90° East  Level FlightAware Approximate
07:43PM 39.0858 -76.8778 84° East 273 314 12,400  Level Washington Center
07:44PM 39.0975 -76.7525 83° East 309 356 13,900 1,200 Climbing Washington Center
07:45PM 39.1131 -76.6269 81° East 325 374 14,900 1,260 Climbing Washington Center
07:46PM 39.1228 -76.4825 85° East 371 427 16,500 1,380 Climbing Washington Center
07:47PM 39.1361 -76.3381 83° East 391 450 17,700 1,200 Climbing Washington Center
07:48PM 39.1517 -76.1911 82° East 410 472 19,000 1,200 Climbing Washington Center
07:49PM 39.1731 -76.0467 79° East 410 472 20,200 1,080 Climbing Washington Center
07:50PM 39.1922 -75.9022 80° East 410 472 21,200 960 Climbing Washington Center
07:51PM 39.2592 -75.7925 52° Northeast 388 447 22,200 960 Climbing Washington Center
07:52PM 39.3383 -75.6908 45° Northeast 381 438 23,200 960 Climbing Washington Center
07:53PM 39.4197 -75.5917 43° Northeast 387 445 24,200 900 Climbing Washington Center
07:54PM 39.4969 -75.4894 46° Northeast 387 445 25,000 780 Climbing Washington Center
07:55PM 39.5739 -75.3842 47° Northeast 387 445 25,800 660 Climbing Washington Center
07:57PM 39.7136 -75.1994 45° Northeast 392 451 27,000 600 Climbing New York Center
07:58PM 39.7928 -75.0828 49° Northeast 415 478 27,600 540 Climbing New York Center
07:59PM 39.8700 -74.9714 48° Northeast 422 486 28,100 480 Climbing New York Center
08:00PM 39.9489 -74.8597 47° Northeast 422 486 28,600 420 Climbing New York Center
08:01PM 40.0297 -74.7478 47° Northeast 422 486 29,000 180 Climbing New York Center
08:02PM 40.1175 -74.6197 48° Northeast 430 495 29,000  Level New York Center
08:03PM 40.1939 -74.5125 47° Northeast 430 495 29,000 -120 Level New York Center
08:04PM 40.2975 -74.3958 41° Northeast 430 495 28,800 -660 Descending New York Center
08:05PM 40.3944 -74.2972 38° Northeast 430 495 27,800 -960 Descending New York Center
08:07PM 40.6047 -74.0639 40° Northeast 439 505 25,600 -1,020 Descending Boston Center
08:08PM 40.7083 -73.9597 37° Northeast 433 498 24,400 -840 Descending Boston Center
08:09PM 40.7931 -73.8628 41° Northeast 421 484 24,000 -240 Descending Boston Center
08:10PM 40.8756 -73.7631 42° Northeast 408 470 24,000  Level Boston Center
08:11PM 40.9411 -73.6739 46° Northeast 385 443 24,000 -540 Level Boston Center
08:12PM 41.0439 -73.6069 26° Northeast 374 430 23,000 -600 Descending Boston Center
08:13PM 41.1403 -73.5592 20° North 364 419 22,900 -660 Descending Boston Center
08:14PM 41.2367 -73.5111 21° North 364 419 21,700 -1,260 Descending Boston Center
08:15PM 41.3369 -73.4822 12° North 359 413 20,400 -1,380 Descending Boston Center
08:16PM 41.4286 -73.4839 359° North 359 413 19,000 -1,560 Descending Boston Center
08:17PM 41.5161 -73.4908 357° North 333 383 17,300 -1,680 Descending Boston Center
08:18PM 41.6119 -73.4953 358° North 327 376 15,700 -1,500 Descending Boston Center
08:19PM 41.6889 -73.4992 358° North 312 359 14,300 -1,560 Descending Boston Center
08:20PM 41.7828 -73.5064 357° North 306 352 12,600 -1,380 Descending Boston Center
08:21PM 41.8556 -73.5103 358° North 306 352 11,600 -840 Descending Boston Center
08:22PM 41.9514 -73.5175 357° North 306 352 11,000 -360 Descending Boston Center
08:23PM 42.0056 -73.5214 357° North 306 352 11,000  Level Boston Center
08:23PM 42.0283 -73.5217 359° North 306 352 11,000  Level Boston Center
08:24PM 42.1158 -73.5233 359° North 326 375 11,000  Level Boston Center
08:25PM 42.1992 -73.5500 347° North 313 360 11,000 -720 Level Boston Center
08:26PM 42.2739 -73.5819 342° North 267 307 9,600 -1,860 Descending Boston Center
08:27PM 42.3444 -73.6142 341° North 253 291 7,300 -2,280 Descending Boston Center
08:28PM 42.4086 -73.6436 341° North 247 284 5,100 -2,100 Descending Boston Center
08:29PM 42.4750 -73.6758 340° North 246 283 3,100 -1,020 Descending Boston Center
08:30PM 42.5372 -73.7025 342° North 210 242 3,000 -420 Descending Boston Center
08:32PM 42.5908 -73.7458 329° Northwest 194 223 2,300 -540 Descending Boston Center
08:33PM 42.6342 -73.7864 325° Northwest 188 216 1,900 -420 Descending Boston Center
08:34PM 42.6778 -73.8042 343° North 160 184 1,500 -600 Descending Boston Center
08:35PM 42.7194 -73.8078 356° North 144 166 700 -840 Descending Boston Center
08:37PM 42.7333 -73.8000 340° North  Level FlightAware Approximate
08:44PM 42.7491 -73.8020 340° North  Level Estimated